Wind_Speed
3 2 2 3 4 1 1 1 4 3 3 5 7 13 10 11 16 15 15 17 20 22 20 21 23 26 26 28 29 29 29 30 30 30 30 31 29 27 27 25 24 25 28 31
3 2 6 3 6 6 3 5 4 4 4 5 6 9 7 9 12 14 16 17 21 22 22 23 24 26 30 32 31 31 32 32 34 34 34 35 34 33 31 31 30 29 30 31
5 3 5 3 3 4 5 5 2 1 3 2 8 5 4 1 6 7 13 16 17 21 22 21 28 29 32 33 34 35 35 34 34 35 37 38 39 40 40 38 37 34 33 34
5 4 3 4 4 6 1 4 2 3 3 2 3 3 3 1 6 7 9 13 16 18 20 19 14 22 24 26 28 31 34 36 36 36 40 41 43 43 41 40 39 39 38 36
4 4 5 4 2 6 4 3 3 3 4 1 1 3 0 0 6 9 11 14 15 16 17 17 17 19 20 21 25 25 25 29 34 39 40 43 42 43 44 45 43 39 35 38
9 4 4 3 1 4 8 4 7 5 1 1 1 4 1 4 5 7 9 11 13 13 12 12 10 12 13 15 19 23 26 26 29 34 40 45 48 47 44 44 43 40 35 27
6 4 3 4 4 3 2 2 2 0 1 3 2 4 4 4 7 8 9 11 11 7 4 3 3 4 5 9 13 16 20 23 25 28 34 39 46 50 49 48 48 41 38 34
4 4 1 4 2 2 1 2 2 3 4 3 3 3 1 4 6 13 14 11 9 8 7 5 4 2 2 6 7 7 10 13 16 19 25 30 34 40 45 48 50 48 43 42
1 2 3 1 3 2 4 2 2 3 1 3 0 3 10 3 4 5 10 12 15 11 10 8 6 5 3 2 3 7 11 14 14 14 14 15 19 25 30 33 38 43 45 43
3 3 1 3 2 8 3 6 2 1 3 5 1 4 5 8 11 8 10 18 19 13 10 8 8 7 5 4 5 5 11 13 15 16 18 18 16 17 20 23 26 30 35 39
5 2 1 3 5 5 1 1 4 2 3 5 7 4 3 4 8 10 16 21 19 13 12 12 12 9 6 6 8 9 9 12 15 18 19 21 22 22 23 24 25 27 30 34
4 2 2 3 1 1 1 2 2 4 1 1 3 5 4 5 10 11 18 20 23 17 13 16 16 11 8 7 9 12 13 13 15 15 19 22 24 25 24 23 21 23 26 27
8 2 3 2 3 3 3 3 3 3 2 4 5 5 2 14 14 17 17 19 16 18 19 20 17 13 9 9 11 14 14 14 16 16 19 22 23 24 25 23 16 15 16 20
8 3 4 6 4 1 3 5 5 5 6 11 10 16 15 13 14 19 18 16 12 15 20 21 18 13 10 12 14 15 17 17 18 20 20 21 23 25 25 19 12 12 12 15
3 3 3 5 6 4 7 9 6 8 14 9 18 16 17 15 13 20 17 9 11 15 21 19 15 11 12 15 17 17 19 19 22 22 22 22 24 25 24 16 8 10 12 20
1 2 3 5 6 9 10 11 12 13 14 15 17 16 17 20 14 17 14 9 11 13 14 15 12 12 12 15 18 20 19 21 24 25 24 23 24 24 21 14 10 9 14 18
2 4 4 13 4 6 12 11 12 9 8 10 10 14 12 12 14 17 15 12 13 13 14 13 13 12 13 15 17 20 19 21 26 27 26 24 22 23 18 15 13 12 12 16
3 2 1 7 3 11 4 4 2 5 9 6 9 14 15 13 19 21 16 13 15 14 15 14 11 12 15 17 18 20 20 22 27 26 26 24 21 22 16 14 15 12 15 18
2 3 2 4 5 6 2 3 4 3 0 12 12 16 20 15 11 15 11 14 17 14 14 13 13 16 20 21 22 25 23 23 26 26 24 25 20 20 14 14 16 16 16 15
4 2 4 3 5 9 3 7 7 3 5 17 15 16 18 13 9 10 14 9 13 12 13 16 18 22 25 25 25 27 25 26 26 25 22 24 21 19 16 15 17 16 15 16
3 2 7 6 7 5 3 9 5 5 7 23 21 21 19 9 13 9 13 12 7 8 11 15 21 26 29 29 28 27 27 28 27 22 21 25 23 19 17 16 18 17 17 17
6 5 4 2 4 7 7 0 5 7 12 17 18 18 18 19 18 18 22 17 11 11 13 15 19 21 23 25 29 29 30 30 31 20 22 24 25 21 18 16 17 18 17 19
4 4 4 5 0 2 5 5 9 11 12 16 19 22 17 18 16 17 15 16 16 18 18 19 21 23 25 27 30 32 32 33 32 22 23 22 24 23 20 17 17 17 17 17
2 1 2 3 3 7 15 9 10 17 20 22 20 18 13 14 16 16 17 17 19 19 19 19 22 25 28 30 31 32 34 33 33 25 24 22 22 23 20 19 18 19 18 18
3 4 2 4 7 15 7 11 18 18 12 14 13 12 11 11 12 14 15 18 19 20 22 24 24 30 30 31 31 31 34 33 21 25 19 17 24 25 22 20 20 21 18 19
4 2 2 3 8 5 15 16 12 11 12 13 13 14 15 15 16 18 21 22 24 26 28 32 33 34 36 37 37 33 32 33 27 19 22 16 29 29 26 22 22 22 20 20
Wind_Direction
13 292 313 279 199 245 207 280 298 254 258 240 247 263 277 214 211 221 215 215 222 228 233 236 238 238 240 245 245 245 244 242 237 233 229 228 229 229 230 233 236 235 234 234
256 282 351 216 202 211 256 312 319 292 309 239 334 317 320 191 220 216 223 225 232 238 239 242 240 242 250 251 252 251 249 247 244 240 239 236 235 236 236 237 238 237 239 238
257 283 329 225 174 213 259 250 229 298 53 252 319 311 346 19 262 239 234 234 240 237 237 244 244 245 251 254 254 255 254 252 250 247 242 242 241 243 242 241 242 241 243 242
262 306 300 262 279 211 330 216 213 158 187 19 335 341 291 302 271 255 237 233 234 231 238 251 257 246 252 258 260 261 260 256 254 251 244 246 247 248 254 252 253 250 247 247
333 299 271 279 270 194 38 96 107 132 124 278 102 264 334 330 231 235 229 233 242 244 249 256 263 267 270 269 268 273 272 266 259 254 250 248 251 254 255 255 255 258 261 256
270 284 261 245 313 203 158 113 83 80 113 214 14 255 218 199 228 212 221 232 236 249 257 264 262 259 261 264 268 272 275 279 274 265 260 252 253 255 255 258 259 260 255 260
304 225 250 206 218 163 175 323 344 184 212 40 350 204 286 251 245 251 253 233 240 226 235 233 218 244 279 282 281 283 278 281 280 276 270 266 261 259 260 261 262 262 259 257
309 135 238 159 283 337 204 302 312 317 330 23 95 232 103 222 276 272 252 246 229 213 212 218 148 141 303 311 313 314 308 305 301 290 283 279 276 270 270 269 267 263 259 259
237 278 322 258 322 286 137 214 61 119 108 260 92 261 274 281 298 282 245 232 232 205 209 210 184 180 256 281 333 346 330 325 320 316 304 289 279 274 274 275 271 267 263 258
161 287 260 338 163 60 292 132 242 246 261 276 234 278 280 346 342 318 261 236 234 224 212 201 180 180 201 242 290 297 310 297 305 304 303 303 294 280 275 271 269 264 262 260
155 244 74 270 32 20 72 165 58 109 335 294 290 282 175 311 306 292 278 263 253 235 217 199 186 191 209 255 286 278 285 290 295 300 302 304 305 302 295 284 275 268 263 259
167 147 285 350 100 285 40 46 14 334 23 51 317 276 196 280 291 272 280 272 259 253 226 198 197 207 224 260 284 276 288 293 298 302 306 305 305 303 299 293 278 268 266 265
182 203 248 260 169 141 221 154 111 114 181 235 283 285 252 294 296 291 274 287 276 246 212 202 208 217 238 270 283 277 287 291 299 298 301 301 307 306 302 299 287 275 268 265
159 146 223 276 298 346 231 195 197 244 282 302 270 293 298 294 299 303 304 285 253 231 209 207 215 227 259 285 287 283 287 291 295 290 298 300 305 308 303 299 280 269 271 255
234 232 202 254 239 231 274 274 244 242 271 268 292 287 285 282 297 299 307 283 232 205 208 214 223 251 277 293 292 289 290 291 291 289 289 299 303 307 300 295 276 271 252 223
167 214 187 260 233 230 260 261 262 256 262 257 273 272 264 277 284 290 293 261 224 215 214 224 243 266 293 300 294 291 289 292 291 288 286 292 300 305 296 279 274 268 248 238
211 159 200 273 317 283 269 277 279 285 263 270 279 308 327 304 308 309 303 250 232 230 234 244 262 282 295 290 285 287 285 291 295 290 287 288 297 303 288 272 262 257 247 244
164 119 206 291 288 269 332 23 293 252 289 350 327 335 332 301 299 295 284 260 247 242 251 260 274 283 289 282 279 284 286 292 298 292 287 285 294 301 287 262 264 244 247 245
213 148 232 273 257 303 262 34 338 336 43 25 352 339 338 330 315 311 328 270 256 262 263 270 276 286 287 282 282 282 289 291 299 292 295 286 290 296 283 248 250 253 244 248
85 44 233 168 259 282 40 341 334 196 227 356 352 338 340 334 306 312 349 312 274 274 277 283 287 287 287 290 291 287 284 285 293 292 296 290 284 287 281 259 247 249 234 236
205 208 238 229 256 267 328 328 329 261 336 328 330 323 319 292 296 283 330 331 319 311 304 298 294 295 293 295 290 288 281 283 289 290 291 290 280 279 277 262 244 243 237 237
241 235 211 167 240 267 3 339 357 329 319 325 321 317 316 307 293 274 286 298 306 307 304 307 308 312 311 304 293 291 284 286 286 284 286 286 278 273 272 264 244 238 235 234
241 248 295 229 9 100 355 285 287 313 310 314 314 317 313 317 314 313 308 308 309 307 303 302 302 302 300 300 300 296 298 292 283 274 276 284 277 267 261 254 238 230 230 228
178 46 270 280 122 341 327 331 347 330 317 314 315 320 309 305 313 313 314 315 315 315 317 313 313 307 302 300 298 296 296 294 286 277 275 281 276 269 251 244 237 229 221 217
4 318 6 280 295 340 310 327 330 321 339 345 354 2 356 345 340 338 331 327 322 326 327 325 324 312 311 309 305 303 302 301 288 279 272 309 288 275 261 240 238 234 222 208
10 25 300 298 347 289 285 319 335 341 339 346 348 346 354 353 346 339 333 330 326 322 319 314 311 308 304 301 295 293 298 302 297 255 240 288 275 277 261 240 237 231 220 209
Height
1525 1524 1522 1518 1520 1520 1522 1524 1525 1516 1513 1515 1514 1514 1512 1515 1517 1521 1523 1525 1526 1527 1529 1531 1532 1534 1535 1536 1538 1539 1541 1543 1546 1547 1549 1550 1550 1553 1554 1555 1557 1559 1561 1563
1524 1522 1516 1517 1518 1520 1521 1522 1519 1515 1513 1515 1511 1508 1506 1510 1512 1516 1518 1519 1521 1524 1526 1526 1527 1527 1528 1530 1531 1533 1535 1537 1539 1541 1542 1545 1546 1547 1549 1551 1552 1554 1556 1558
1526 1515 1515 1516 1517 1520 1517 1521 1520 1518 1516 1515 1516 1509 1508 1508 1509 1511 1513 1515 1516 1518 1519 1520 1520 1522 1524 1524 1524 1526 1528 1530 1532 1535 1538 1540 1541 1541 1542 1544 1546 1548 1551 1553
1519 1514 1513 1513 1515 1513 1516 1514 1515 1516 1519 1525 1521 1530 1513 1510 1508 1508 1509 1509 1511 1513 1513 1515 1515 1517 1517 1516 1518 1519 1521 1524 1527 1530 1532 1532 1532 1533 1534 1537 1540 1543 1546 1548
1517 1513 1512 1514 1510 1510 1513 1510 1512 1515 1519 1521 1524 1526 1508 1512 1508 1503 1504 1505 1506 1507 1509 1510 1511 1512 1513 1514 1515 1516 1518 1519 1521 1522 1524 1525 1525 1525 1527 1529 1532 1534 1538 1541
1515 1513 1511 1507 1505 1507 1509 1512 1514 1517 1519 1533 1531 1526 1509 1506 1502 1497 1500 1502 1502 1503 1505 1506 1508 1509 1510 1511 1512 1513 1514 1515 1516 1517 1517 1518 1518 1519 1521 1521 1523 1526 1530 1532
1512 1510 1506 1506 1508 1507 1507 1508 1524 1531 1530 1532 1531 1530 1507 1500 1498 1498 1497 1498 1498 1500 1502 1504 1505 1506 1507 1508 1508 1509 1510 1511 1511 1511 1512 1512 1512 1513 1514 1515 1515 1519 1522 1523
1523 1520 1505 1504 1504 1505 1508 1507 1524 1547 1537 1530 1532 1527 1503 1496 1496 1495 1494 1495 1497 1497 1499 1501 1502 1503 1504 1505 1506 1506 1506 1507 1507 1507 1506 1507 1506 1507 1506 1506 1507 1510 1512 1515
1522 1518 1503 1503 1502 1503 1512 1513 1512 1525 1540 1534 1526 1515 1496 1494 1493 1493 1492 1493 1492 1495 1496 1497 1499 1500 1502 1503 1504 1504 1504 1504 1503 1502 1501 1501 1500 1499 1498 1498 1499 1499 1501 1503
1513 1522 1506 1503 1503 1505 1503 1509 1515 1519 1538 1542 1525 1525 1509 1496 1495 1493 1491 1488 1488 1490 1492 1495 1496 1497 1499 1501 1501 1502 1502 1501 1500 1499 1498 1496 1495 1493 1492 1491 1489 1490 1491 1494
1510 1514 1510 1505 1509 1514 1510 1511 1520 1518 1525 1527 1531 1515 1499 1498 1496 1493 1489 1487 1486 1487 1488 1491 1493 1494 1495 1497 1498 1499 1498 1498 1497 1495 1494 1492 1489 1487 1485 1484 1483 1482 1483 1484
1508 1511 1518 1513 1512 1513 1512 1514 1514 1519 1531 1538 1531 1517 1494 1494 1492 1491 1485 1481 1482 1484 1486 1488 1490 1491 1493 1494 1495 1495 1495 1494 1493 1492 1490 1488 1485 1482 1479 1477 1475 1475 1475 1477
1507 1514 1522 1517 1513 1512 1510 1512 1516 1517 1520 1526 1528 1512 1492 1491 1487 1483 1480 1477 1476 1478 1481 1484 1486 1488 1490 1490 1491 1491 1491 1490 1489 1488 1487 1484 1480 1477 1473 1470 1468 1468 1469 1470
1504 1511 1510 1522 1514 1510 1513 1509 1512 1509 1516 1510 1511 1501 1492 1484 1481 1477 1476 1474 1472 1473 1477 1480 1483 1485 1487 1487 1488 1488 1488 1486 1485 1484 1482 1479 1476 1472 1468 1465 1464 1463 1464 1465
1503 1508 1512 1507 1508 1511 1508 1506 1506 1512 1503 1511 1496 1495 1486 1479 1478 1474 1472 1470 1470 1469 1473 1477 1481 1483 1484 1484 1485 1484 1483 1482 1481 1479 1477 1474 1471 1468 1464 1461 1460 1460 1461 1463
1503 1509 1512 1508 1502 1507 1507 1501 1500 1500 1498 1501 1494 1494 1476 1476 1475 1471 1469 1468 1468 1470 1473 1476 1478 1479 1480 1481 1481 1479 1478 1477 1476 1474 1472 1470 1467 1464 1459 1457 1457 1457 1458 1461
1503 1508 1514 1512 1510 1509 1508 1492 1489 1490 1489 1488 1493 1480 1479 1476 1474 1471 1468 1467 1467 1470 1472 1474 1475 1476 1477 1477 1476 1474 1473 1472 1470 1468 1466 1465 1463 1459 1456 1454 1454 1454 1456 1457
1506 1511 1515 1509 1512 1522 1487 1489 1489 1491 1487 1487 1486 1480 1478 1477 1473 1468 1465 1465 1466 1468 1469 1471 1471 1472 1473 1472 1471 1469 1467 1466 1465 1462 1460 1459 1457 1455 1452 1451 1450 1451 1453 1453
1501 1505 1511 1515 1511 1499 1488 1490 1492 1492 1488 1487 1486 1481 1478 1476 1472 1465 1463 1463 1465 1466 1467 1468 1468 1468 1468 1467 1466 1464 1463 1461 1459 1456 1455 1453 1452 1450 1447 1446 1447 1448 1449 1450
1505 1505 1502 1519 1517 1514 1495 1489 1491 1491 1493 1486 1486 1481 1479 1476 1473 1464 1465 1463 1463 1464 1465 1465 1465 1464 1462 1462 1460 1458 1457 1455 1453 1451 1450 1448 1448 1446 1444 1443 1442 1444 1445 1447
1502 1506 1505 1504 1506 1495 1491 1490 1489 1497 1496 1486 1484 1481 1479 1478 1474 1470 1467 1465 1463 1462 1463 1463 1461 1459 1457 1455 1453 1451 1450 1449 1447 1446 1445 1444 1442 1441 1440 1439 1439 1439 1441 1442
1495 1499 1501 1509 1509 1506 1493 1490 1496 1493 1489 1486 1483 1480 1477 1472 1468 1466 1465 1464 1462 1461 1460 1458 1456 1454 1451 1449 1447 1445 1443 1442 1440 1439 1438 1437 1436 1436 1436 1435 1435 1435 1437 1438
1502 1491 1491 1494 1490 1493 1494 1493 1491 1489 1488 1484 1481 1476 1474 1470 1466 1465 1462 1461 1459 1457 1455 1453 1451 1448 1447 1445 1442 1438 1437 1435 1431 1431 1429 1429 1430 1430 1431 1431 1433 1432 1433 1434
1492 1495 1492 1493 1492 1491 1490 1488 1488 1486 1483 1479 1475 1472 1469 1467 1464 1462 1460 1459 1457 1454 1451 1449 1446 1443 1441 1439 1436 1432 1429 1425 1426 1428 1428 1425 1423 1424 1426 1427 1429 1429 1429 1431
1496 1496 1498 1493 1490 1490 1487 1487 1486 1482 1479 1476 1473 1469 1467 1465 1463 1461 1458 1456 1453 1449 1448 1446 1440 1441 1436 1433 1430 1427 1422 1417 1417 1411 1422 1425 1422 1422 1422 1423 1424 1426 1426 1428
1500 1500 1496 1493 1495 1496 1490 1486 1484 1481 1478 1475 1472 1469 1467 1465 1462 1459 1457 1454 1451 1446 1443 1440 1436 1432 1428 1425 1421 1419 1414 1409 1408 1408 1408 1403 1413 1417 1417 1418 1419 1421 1424 1425